Orbital Elements at Epoch 2456270.5 (2012-Dec-09.0) TDB
Reference: JPL 4 (heliocentric ecliptic J2000)
Element | Value | Uncertainty (1-sigma) | Units |
e | .6469245729876328 | 0.0020175 | |
a | 1.726067844932762 | 0.0077172 | au |
q | .6094321414019511 | 0.00075759 | au |
i | 2.390919004108574 | 0.0077093 | deg |
node | 77.17001143574727 | 0.0018868 | deg |
peri | 90.13271044283053 | 0.007068 | deg |
M | 338.247827621512 | 0.17545 | deg |
tp | 2456320.547841945245 (2013-Jan-28.04784195) | 0.068036 | TDB |
period | 828.2953438759286 2.27 | 5.5549 0.01521 | d yr |
n | .4346275789930372 | 0.0029148 | deg/d |
Q | 2.842703548463572 | 0.01271 | au |
|
| | Orbit Determination Parameters
Additional Information
|